Location: Unspecified
(0.0000°N, 0.0000°E)
Time: 17:44:25
(UTC+02:00)

GP-B - Visible Passes

Search period start: 26 May 2015 00:00
Search period end: 05 June 2015 00:00
Orbit: 633 x 637 km, 89.9° (Epoch: 25 May)

Date Brightness Start Highest point End Pass type
(mag) Time Alt. Az. Time Alt. Az. Time Alt. Az.
26 May 4.3 06:20:27 10° NNE 06:24:38 42° E 06:28:52 10° SSE visible
27 May 3.0 06:42:23 10° N 06:46:49 78° W 06:51:16 10° S visible
28 May 3.9 07:05:02 10° NNW 07:09:00 31° W 07:12:56 10° SSW visible
29 May 5.3 05:50:33 10° NE 05:54:01 23° E 05:57:37 10° SSE visible
29 May 4.9 07:28:53 10° NW 07:31:16 14° W 07:33:23 10° WSW visible
30 May 3.7 06:11:53 10° NNE 06:16:13 55° E 06:19:37 16° SSE visible
31 May 3.1 06:34:01 10° N 06:38:23 60° W 06:41:04 23° SSW visible
01 Jun 6.0 05:21:31 10° ENE 05:23:20 13° E 05:25:08 11° ESE visible
01 Jun 4.2 06:56:54 10° NNW 07:00:36 25° W 07:02:34 18° SW visible
02 Jun 4.8 05:41:46 10° NNE 05:45:36 29° E 05:46:42 26° ESE visible
02 Jun 5.1 07:21:49 10° WNW 07:22:53 10° W 07:23:34 10° W visible
03 Jun 3.2 06:03:22 10° N 06:07:47 72° E 06:08:17 64° SE visible
04 Jun 3.3 06:25:42 10° NNW 06:29:55 46° W 06:29:55 46° W visible
